Location: City of Moscow
(46.7306°N, 116.9989°W)
Time: 18:07:49
(UTC+00:00)

Meteor 2-3 Rocket - Pass Details

Date: 11 December 2025
Orbit: 842 x 883 km, 81.2° (Epoch: 15 January)

Event Time Altitude Azimuth Distance (km) Brightness Sun altitude
Rises 13:08:26 0° 200° (SSW) 3,452 6.8 -22.0°
Reaches altitude 10° 13:10:54 10° 203° (SSW) 2,513 6.0 -21.6°
Maximum altitude 13:16:33 62° 284° (WNW) 974 3.7 -20.7°
Drops below altitude 10° 13:22:12 10° 5° (N) 2,503 6.1 -19.7°
Sets 13:24:39 0° 9° (N) 3,438 6.8 -19.3°
